SCP
-0 -0 -0 -0 -0 -0 -0 -0 -0 -0 0 0 0 0 0 -0 0 0 0 0 0 0 0 0 -0 -0 -0 -0 0 0 0 0 0 0 0 -0 -0 -0 -0 0 -0 -0 0 0
-0 -0 -0 0 0 0 -0 -0 -0 -0 0 -0 -0 -0 -0 0 0 0 0 0 0 0 0 0 0 -0 -0 -0 -0 0 0 0 0 -0 0 0 0 0 -0 -0 -0 -0 -0 0
-0 0 0 0 0 -0 -0 0 -0 -0 -0 -0 -0 0 -0 0 0 0 0 0 0 0 0 0 -0 -0 -0 -0 -0 -0 0 0 0 0 0 0 0 0 -0 0 0 0 -0 -0
-0 0 0 -0 -0 -0 0 -0 0 -0 -0 0 -0 -0 -0 0 0 0 0 0 0 0 -0 0 -0 -0 -0 -0 -0 -0 0 0 0 0 0 0 0 0 0 0 0 0 0 0
-0 0 -0 0 -0 0 -0 0 -0 -0 -0 -0 -0 -0 0 0 0 0 0 0 0 0 -0 -0 -0 -0 -0 -0 -0 -0 -0 -0 0 0 0 0 -0 0 0 0 0 0 0 0
0 0 0 -0 -0 0 -0 -0 -0 -0 -0 -0 -0 0 0 -0 0 -0 0 0 0 0 -0 -0 -0 -0 -0 -0 -0 -0 -0 -0 -0 -0 -0 0 0 -0 0 0 0 0 0 0
0 -0 -0 -0 -0 -0 -0 -0 -0 -0 0 0 -0 -0 0 -0 0 0 0 0 0 0 -0 -0 -0 -0 -0 -0 -0 -0 -0 -0 0 0 0 0 -0 -0 0 0 0 0 0 0
0 -0 -0 0 -0 -0 -0 -0 0 -0 0 0 0 0 0 -0 0 0 0 0 0 0 0 -0 -0 -0 -0 -0 -0 0 -0 0 0 -0 -0 0 0 0 0 0 0 0 0 0
0 -0 0 -0 0 0 -0 -0 -0 -0 -0 0 0 0 -0 0 0 0 -0 0 -0 -0 0 0 -0 -0 -0 -0 -0 0 -0 -0 -0 -0 -0 -0 -0 -0 0 0 0 0 0 0
-0 0 0 0 0 -0 0 -0 -0 0 -0 0 0 -0 0 0 0 0 0 -0 -0 0 -0 0 -0 -0 -0 -0 -0 -0 -0 -0 -0 -0 -0 -0 -0 0 0 0 0 0 0 0
-0 0 0 0 0 -0 0 -0 -0 -0 0 0 0 -0 0 0 -0 0 0 0 -0 0 -0 0 -0 -0 -0 -0 -0 -0 -0 -0 -0 -0 -0 -0 -0 0 0 0 0 0 0 0
0 0 -0 0 0 -0 0 0 -0 -0 -0 -0 0 0 0 0 0 0 0 0 0 0 -0 -0 -0 -0 -0 -0 -0 -0 -0 -0 -0 -0 -0 0 0 0 0 0 0 0 0 0
-0 -0 -0 -0 -0 -0 0 -0 -0 -0 -0 -0 0 0 0 0 0 0 0 0 0 -0 0 -0 -0 -0 -0 -0 -0 -0 -0 -0 -0 -0 -0 0 0 0 0 0 0 0 0 0
0 -0 -0 -0 0 0 0 -0 -0 0 -0 0 0 0 0 0 0 0 -0 0 0 0 -0 -0 -0 -0 -0 -0 -0 -0 -0 -0 -0 -0 0 0 0 0 0 0 0 0 0 0
-0 -0 -0 -0 0 -0 0 0 0 -0 -0 -0 -0 0 0 0 0 0 0 0 0 -0 -0 -0 -0 -0 -0 -0 -0 -0 -0 0 0 0 0 0 0 0 0 0 0 0 0 0
-0 -0 0 0 0 0 0 -0 -0 0 -0 -0 -0 0 0 0 0 0 0 0 0 0 0 -0 -0 -0 -0 -0 -0 0 1 0 0 0 1 0 0 0 0 0 0 0 0 0
-0 -0 0 -0 0 0 0 0 0 -0 0 0 -0 0 -0 0 0 0 0 0 0 0 0 0 -0 0 0 -0 0 0 0 0 1 1 1 0 0 0 0 0 0 0 0 0
0 0 0 0 0 0 0 0 0 0 0 0 0 0 0 0 0 0 0 0 0 0 0 0 0 0 0 0 1 1 1 1 1 1 0 0 0 0 0 0 0 0 0 0
0 0 0 0 0 0 -0 0 0 0 0 0 0 0 0 0 0 0 0 0 -0 0 0 1 1 1 1 1 1 2 1 1 1 0 0 0 0 0 0 0 0 0 0 0
0 0 0 0 0 0 0 0 0 0 0 0 0 0 0 0 0 1 0 0 -0 0 1 1 0 1 1 2 2 2 1 1 1 1 0 0 0 0 0 0 0 0 0 0
0 0 0 0 0 0 0 0 0 0 1 1 1 1 1 1 1 1 0 0 1 1 1 1 2 2 3 3 1 1 1 1 1 1 1 0 0 0 0 0 0 0 0 0
0 0 0 0 0 0 1 0 0 1 1 0 0 1 1 1 1 1 1 1 1 3 4 2 1 4 2 1 1 1 1 1 1 1 1 1 0 0 0 0 0 0 0 0
0 0 0 0 0 0 0 0 0 0 0 0 0 0 0 0 1 1 1 1 1 2 3 2 2 3 3 2 1 1 1 1 1 1 1 1 0 0 0 0 0 0 0 0
0 0 0 0 0 0 0 0 0 0 0 0 0 1 1 1 1 2 1 1 2 2 3 3 3 2 2 2 2 0 1 1 1 1 1 1 0 0 0 0 0 0 0 0
0 0 0 0 0 0 0 0 0 0 0 1 1 1 1 2 2 2 2 2 2 2 2 2 1 1 0 1 1 0 1 1 1 1 1 0 0 0 0 0 0 0 0 0
0 0 0 1 1 1 0 0 0 0 1 1 1 1 2 2 2 3 4 1 2 1 1 1 1 1 1 0 0 1 1 1 1 1 0 0 0 0 0 0 0 0 0 0
Wind_Speed_500mb
37 32 25 13 46 68 33 6 10 14 9 12 8 10 12 40 30 31 35 39 36 36 32 30 34 30 30 33 29 26 32 36 19 16 12 10 11 12 11 11 12 9 6 10
25 26 31 16 12 13 17 47 16 12 4 15 11 23 20 19 32 32 36 37 38 36 36 35 31 31 29 28 30 26 23 29 29 20 18 15 11 14 11 12 14 9 11 12
35 13 16 10 12 23 22 6 16 20 21 57 40 13 49 16 18 28 31 33 39 40 38 38 35 33 26 29 28 26 22 26 26 20 17 14 13 7 11 12 13 5 13 7
31 31 14 12 26 10 33 45 11 22 27 14 30 10 22 8 18 16 26 33 34 36 38 37 38 35 28 25 26 26 24 29 27 26 16 22 16 8 9 6 13 5 9 7
40 22 15 24 22 11 24 14 21 27 28 31 20 20 14 7 21 16 23 28 29 30 35 38 36 35 27 24 26 26 25 30 31 29 22 17 18 5 8 8 9 6 7 5
36 22 20 29 22 7 26 27 35 39 30 24 21 13 12 7 18 16 16 20 22 26 25 32 31 32 28 26 27 28 30 31 31 24 29 24 11 11 11 9 8 8 8 5
34 25 20 22 17 20 23 31 29 15 7 11 19 28 6 29 21 11 14 18 20 21 25 29 34 36 32 33 29 29 32 33 28 25 23 20 19 15 11 8 11 7 6 5
29 33 34 28 24 35 31 27 22 22 15 18 28 12 20 32 23 15 13 18 22 25 28 32 36 36 35 34 30 28 31 29 29 27 23 19 17 14 15 13 4 5 3 4
27 36 20 34 26 28 33 30 26 34 34 21 10 14 19 11 20 20 17 21 24 25 26 33 38 36 36 36 31 29 31 29 27 23 21 18 14 10 12 10 1 2 6 10
27 17 15 23 21 29 33 31 28 16 23 17 20 18 12 2 18 16 17 24 26 28 30 34 39 39 38 36 33 30 30 28 26 23 19 13 14 15 10 5 11 9 11 8
31 14 15 10 19 31 25 26 28 34 22 12 12 11 10 12 12 21 19 25 31 32 33 35 38 39 40 39 37 36 35 33 31 26 24 22 17 14 10 6 3 3 3 3
31 13 24 23 23 21 22 19 32 25 30 24 22 12 8 14 17 12 18 28 31 33 36 37 40 41 42 41 40 38 36 34 31 28 27 25 22 18 11 6 1 3 2 0
25 19 22 26 27 20 22 26 30 31 32 31 18 19 12 8 12 8 21 28 32 37 39 39 43 44 44 43 41 39 39 37 32 28 29 26 22 20 15 8 3 2 2 1
17 29 23 17 19 8 27 26 27 32 25 27 18 20 18 14 10 24 15 27 34 40 43 43 45 46 46 46 43 43 38 35 34 30 29 26 22 17 12 5 1 3 1 0
21 28 28 25 22 25 14 21 23 25 27 34 29 15 7 12 19 14 8 25 35 41 47 49 49 50 50 48 47 44 40 38 35 35 32 28 26 21 11 4 3 2 3 3
31 28 17 25 23 30 20 28 28 19 22 27 32 29 19 7 5 3 9 25 39 43 47 48 49 50 50 50 48 45 45 42 40 38 33 34 28 19 13 7 5 6 7 7
26 20 12 25 28 14 17 27 34 29 30 30 28 24 28 14 15 26 17 20 38 47 50 51 49 50 50 50 46 46 44 40 39 38 37 34 29 22 13 7 7 8 7 7
17 14 18 21 27 22 23 19 16 29 33 26 26 27 21 19 25 34 34 29 36 51 55 51 47 44 45 45 44 42 41 40 39 39 37 35 28 20 14 10 9 11 9 10
15 14 18 20 23 28 31 21 28 26 27 30 29 29 15 27 22 29 17 21 33 45 55 54 47 43 43 44 43 44 42 39 37 37 33 32 27 19 14 13 11 9 9 10
27 16 17 23 28 33 29 21 26 17 18 29 28 22 23 24 20 19 18 11 18 34 50 50 48 47 43 45 46 42 38 38 37 32 31 25 20 16 13 14 15 14 13 11
18 19 26 24 26 31 13 11 8 18 4 23 26 23 21 15 17 21 13 3 14 29 40 43 45 49 44 42 36 35 34 30 27 25 22 20 15 10 14 16 15 13 12 13
19 18 16 21 21 28 24 15 13 13 14 18 22 22 18 16 9 8 5 7 15 25 27 32 37 39 35 36 33 33 33 33 29 20 15 12 10 8 15 16 17 15 15 15
19 23 20 16 11 3 14 13 17 21 22 21 21 21 12 9 6 3 6 13 15 18 21 25 28 38 34 22 22 34 35 30 29 28 25 18 21 16 19 18 18 16 17 13
17 5 14 23 21 13 14 19 16 17 18 18 18 17 12 10 2 11 14 20 23 24 26 25 27 31 41 38 10 10 35 38 31 24 20 17 16 15 14 13 16 16 15 19
11 3 7 20 30 18 9 10 18 19 10 10 7 6 1 6 11 18 21 24 28 28 26 25 26 25 29 28 39 41 32 32 25 20 17 11 12 18 15 19 16 20 21 23
25 13 12 9 13 10 10 14 17 13 4 2 7 15 19 25 29 33 36 34 25 20 19 24 23 25 23 28 28 26 25 22 20 15 10 12 13 16 16 16 20 25 22 23
Wind_Direction_500mb
213 240 231 208 136 191 247 282 103 91 87 282 259 299 93 161 194 200 195 187 198 197 194 190 199 200 206 204 204 207 220 212 202 206 204 197 196 196 212 217 255 255 237 250
195 245 241 26 11 272 264 39 46 82 131 284 337 342 114 158 174 197 198 193 194 202 189 197 194 195 199 197 197 201 200 206 198 205 202 201 195 216 222 249 272 271 244 247
232 319 114 215 207 261 263 21 32 348 313 20 314 22 280 121 150 175 200 205 196 197 204 192 196 191 190 198 198 203 205 199 202 199 197 207 205 208 226 236 267 196 285 292
251 153 197 225 266 290 105 270 342 308 304 182 234 155 35 166 135 166 198 205 202 196 194 200 197 198 200 204 199 199 201 185 188 197 195 215 208 247 207 238 249 272 273 274
224 149 208 241 258 20 314 359 314 287 284 273 333 291 248 181 73 125 187 204 203 200 194 191 200 198 201 193 192 193 194 185 189 203 186 217 218 224 237 245 276 224 261 221
252 176 213 239 252 224 304 288 268 250 0 332 226 301 89 278 64 104 152 196 197 192 186 185 188 187 188 185 179 177 183 188 190 202 206 207 220 223 237 244 250 271 286 297
225 242 232 237 256 209 248 260 273 290 109 239 346 286 54 97 78 77 147 174 184 179 179 178 178 179 180 180 178 183 181 182 190 201 210 214 202 213 235 245 266 265 287 281
214 223 210 215 236 268 254 295 294 282 308 184 171 312 107 282 105 121 133 166 173 183 170 173 176 176 179 179 177 177 183 183 188 184 187 190 201 218 226 247 241 262 218 239
229 223 228 213 219 225 253 254 280 291 300 315 133 222 92 91 114 135 158 158 175 176 165 167 170 176 177 180 177 173 171 175 178 183 186 193 202 183 202 220 245 262 267 305
270 284 250 181 229 256 268 284 264 219 260 269 60 275 119 343 129 154 169 179 178 171 170 170 172 172 175 176 174 173 168 171 174 182 182 177 177 182 192 173 198 225 271 246
254 219 201 206 221 251 209 242 257 287 291 319 307 87 115 161 258 149 176 187 177 175 177 173 174 173 172 171 173 173 172 175 174 178 167 170 167 165 150 156 135 119 236 332
227 231 235 203 232 232 281 238 230 246 230 248 315 282 337 44 360 32 186 176 178 180 180 178 178 176 174 174 176 176 175 175 171 175 172 166 161 153 155 146 193 328 294 314
224 233 251 236 173 204 247 253 273 271 272 275 223 247 74 303 171 190 273 166 184 182 182 181 180 181 180 179 180 182 178 178 181 180 173 172 167 156 163 158 192 298 284 207
280 237 233 245 232 271 194 222 239 257 255 257 251 273 276 329 188 131 268 173 190 190 185 187 186 184 187 184 182 183 178 182 182 176 176 172 163 163 160 182 193 304 276 60
243 242 260 269 276 278 280 229 239 249 264 271 276 205 353 24 23 21 193 192 193 192 190 191 190 186 186 186 184 186 187 182 181 176 177 173 181 182 201 215 273 284 6 286
221 260 290 298 292 268 241 262 273 214 261 255 275 287 317 359 67 329 291 228 202 199 200 197 194 188 188 185 184 183 182 182 177 177 177 190 195 199 208 231 286 318 317 297
226 240 250 257 265 296 246 244 264 254 226 240 256 248 260 327 335 334 294 245 221 208 207 202 196 191 191 188 185 182 181 178 180 179 185 193 194 203 212 231 268 286 297 255
199 253 270 282 294 263 264 316 309 297 252 256 253 268 285 316 335 302 285 256 237 218 208 202 194 190 188 186 182 176 178 179 181 182 188 188 190 201 209 241 268 279 271 254
246 274 267 265 256 269 273 257 230 254 273 293 325 272 337 352 305 297 248 257 248 220 200 195 192 190 182 181 178 175 178 178 185 186 188 188 194 202 215 240 262 261 261 257
269 235 268 266 272 276 287 31 6 340 261 12 1 10 357 332 289 52 350 283 228 200 188 187 189 181 182 181 179 175 175 179 181 180 178 188 192 200 228 267 269 269 258 254
223 240 253 240 248 259 42 32 336 251 17 7 3 357 350 336 354 337 343 257 171 173 176 180 182 173 183 177 174 167 167 167 165 167 176 187 202 234 271 271 266 265 267 234
252 253 241 249 266 260 17 281 303 16 341 358 349 344 344 330 2 7 49 148 159 159 154 174 171 159 163 169 167 160 153 157 158 168 179 209 248 274 278 273 281 284 277 271
242 275 305 311 14 102 3 342 335 332 326 327 333 331 316 304 359 11 111 138 143 148 151 164 165 150 144 151 164 156 161 173 178 179 206 246 259 260 251 277 281 279 286 274
192 186 264 288 284 339 342 322 311 314 311 319 317 321 303 283 194 125 121 123 128 138 143 147 149 154 149 136 114 192 182 178 183 193 211 205 235 244 260 263 278 279 266 264
37 155 258 268 258 296 268 1 321 309 312 317 333 324 315 146 128 135 121 125 131 131 146 155 162 170 191 165 183 191 183 187 179 183 199 203 226 263 254 270 249 254 264 253
229 255 244 24 36 335 335 327 313 276 233 17 135 109 99 112 115 112 112 129 131 133 125 135 142 138 151 151 165 163 166 164 171 193 217 223 228 242 262 263 273 286 293 291
Wind_Speed_850mb
37 32 25 13 46 68 33 6 10 14 9 12 8 10 12 40 30 31 35 39 36 36 32 30 34 30 30 33 29 26 32 36 19 16 12 10 11 12 11 11 12 9 6 10
25 26 31 16 12 13 17 47 16 12 4 15 11 23 20 19 32 32 36 37 38 36 36 35 31 31 29 28 30 26 23 29 29 20 18 15 11 14 11 12 14 9 11 12
35 13 16 10 12 23 22 6 16 20 21 57 40 13 49 16 18 28 31 33 39 40 38 38 35 33 26 29 28 26 22 26 26 20 17 14 13 7 11 12 13 5 13 7
31 31 14 12 26 10 33 45 11 22 27 14 30 10 22 8 18 16 26 33 34 36 38 37 38 35 28 25 26 26 24 29 27 26 16 22 16 8 9 6 13 5 9 7
40 22 15 24 22 11 24 14 21 27 28 31 20 20 14 7 21 16 23 28 29 30 35 38 36 35 27 24 26 26 25 30 31 29 22 17 18 5 8 8 9 6 7 5
36 22 20 29 22 7 26 27 35 39 30 24 21 13 12 7 18 16 16 20 22 26 25 32 31 32 28 26 27 28 30 31 31 24 29 24 11 11 11 9 8 8 8 5
34 25 20 22 17 20 23 31 29 15 7 11 19 28 6 29 21 11 14 18 20 21 25 29 34 36 32 33 29 29 32 33 28 25 23 20 19 15 11 8 11 7 6 5
29 33 34 28 24 35 31 27 22 22 15 18 28 12 20 32 23 15 13 18 22 25 28 32 36 36 35 34 30 28 31 29 29 27 23 19 17 14 15 13 4 5 3 4
27 36 20 34 26 28 33 30 26 34 34 21 10 14 19 11 20 20 17 21 24 25 26 33 38 36 36 36 31 29 31 29 27 23 21 18 14 10 12 10 1 2 6 10
27 17 15 23 21 29 33 31 28 16 23 17 20 18 12 2 18 16 17 24 26 28 30 34 39 39 38 36 33 30 30 28 26 23 19 13 14 15 10 5 11 9 11 8
31 14 15 10 19 31 25 26 28 34 22 12 12 11 10 12 12 21 19 25 31 32 33 35 38 39 40 39 37 36 35 33 31 26 24 22 17 14 10 6 3 3 3 3
31 13 24 23 23 21 22 19 32 25 30 24 22 12 8 14 17 12 18 28 31 33 36 37 40 41 42 41 40 38 36 34 31 28 27 25 22 18 11 6 1 3 2 0
25 19 22 26 27 20 22 26 30 31 32 31 18 19 12 8 12 8 21 28 32 37 39 39 43 44 44 43 41 39 39 37 32 28 29 26 22 20 15 8 3 2 2 1
17 29 23 17 19 8 27 26 27 32 25 27 18 20 18 14 10 24 15 27 34 40 43 43 45 46 46 46 43 43 38 35 34 30 29 26 22 17 12 5 1 3 1 0
21 28 28 25 22 25 14 21 23 25 27 34 29 15 7 12 19 14 8 25 35 41 47 49 49 50 50 48 47 44 40 38 35 35 32 28 26 21 11 4 3 2 3 3
31 28 17 25 23 30 20 28 28 19 22 27 32 29 19 7 5 3 9 25 39 43 47 48 49 50 50 50 48 45 45 42 40 38 33 34 28 19 13 7 5 6 7 7
26 20 12 25 28 14 17 27 34 29 30 30 28 24 28 14 15 26 17 20 38 47 50 51 49 50 50 50 46 46 44 40 39 38 37 34 29 22 13 7 7 8 7 7
17 14 18 21 27 22 23 19 16 29 33 26 26 27 21 19 25 34 34 29 36 51 55 51 47 44 45 45 44 42 41 40 39 39 37 35 28 20 14 10 9 11 9 10
15 14 18 20 23 28 31 21 28 26 27 30 29 29 15 27 22 29 17 21 33 45 55 54 47 43 43 44 43 44 42 39 37 37 33 32 27 19 14 13 11 9 9 10
27 16 17 23 28 33 29 21 26 17 18 29 28 22 23 24 20 19 18 11 18 34 50 50 48 47 43 45 46 42 38 38 37 32 31 25 20 16 13 14 15 14 13 11
18 19 26 24 26 31 13 11 8 18 4 23 26 23 21 15 17 21 13 3 14 29 40 43 45 49 44 42 36 35 34 30 27 25 22 20 15 10 14 16 15 13 12 13
19 18 16 21 21 28 24 15 13 13 14 18 22 22 18 16 9 8 5 7 15 25 27 32 37 39 35 36 33 33 33 33 29 20 15 12 10 8 15 16 17 15 15 15
19 23 20 16 11 3 14 13 17 21 22 21 21 21 12 9 6 3 6 13 15 18 21 25 28 38 34 22 22 34 35 30 29 28 25 18 21 16 19 18 18 16 17 13
17 5 14 23 21 13 14 19 16 17 18 18 18 17 12 10 2 11 14 20 23 24 26 25 27 31 41 38 10 10 35 38 31 24 20 17 16 15 14 13 16 16 15 19
11 3 7 20 30 18 9 10 18 19 10 10 7 6 1 6 11 18 21 24 28 28 26 25 26 25 29 28 39 41 32 32 25 20 17 11 12 18 15 19 16 20 21 23
25 13 12 9 13 10 10 14 17 13 4 2 7 15 19 25 29 33 36 34 25 20 19 24 23 25 23 28 28 26 25 22 20 15 10 12 13 16 16 16 20 25 22 23
Wind_Direction_850mb
213 240 231 208 136 191 247 282 103 91 87 282 259 299 93 161 194 200 195 187 198 197 194 190 199 200 206 204 204 207 220 212 202 206 204 197 196 196 212 217 255 255 237 250
195 245 241 26 11 272 264 39 46 82 131 284 337 342 114 158 174 197 198 193 194 202 189 197 194 195 199 197 197 201 200 206 198 205 202 201 195 216 222 249 272 271 244 247
232 319 114 215 207 261 263 21 32 348 313 20 314 22 280 121 150 175 200 205 196 197 204 192 196 191 190 198 198 203 205 199 202 199 197 207 205 208 226 236 267 196 285 292
251 153 197 225 266 290 105 270 342 308 304 182 234 155 35 166 135 166 198 205 202 196 194 200 197 198 200 204 199 199 201 185 188 197 195 215 208 247 207 238 249 272 273 274
224 149 208 241 258 20 314 359 314 287 284 273 333 291 248 181 73 125 187 204 203 200 194 191 200 198 201 193 192 193 194 185 189 203 186 217 218 224 237 245 276 224 261 221
252 176 213 239 252 224 304 288 268 250 0 332 226 301 89 278 64 104 152 196 197 192 186 185 188 187 188 185 179 177 183 188 190 202 206 207 220 223 237 244 250 271 286 297
225 242 232 237 256 209 248 260 273 290 109 239 346 286 54 97 78 77 147 174 184 179 179 178 178 179 180 180 178 183 181 182 190 201 210 214 202 213 235 245 266 265 287 281
214 223 210 215 236 268 254 295 294 282 308 184 171 312 107 282 105 121 133 166 173 183 170 173 176 176 179 179 177 177 183 183 188 184 187 190 201 218 226 247 241 262 218 239
229 223 228 213 219 225 253 254 280 291 300 315 133 222 92 91 114 135 158 158 175 176 165 167 170 176 177 180 177 173 171 175 178 183 186 193 202 183 202 220 245 262 267 305
270 284 250 181 229 256 268 284 264 219 260 269 60 275 119 343 129 154 169 179 178 171 170 170 172 172 175 176 174 173 168 171 174 182 182 177 177 182 192 173 198 225 271 246
254 219 201 206 221 251 209 242 257 287 291 319 307 87 115 161 258 149 176 187 177 175 177 173 174 173 172 171 173 173 172 175 174 178 167 170 167 165 150 156 135 119 236 332
227 231 235 203 232 232 281 238 230 246 230 248 315 282 337 44 360 32 186 176 178 180 180 178 178 176 174 174 176 176 175 175 171 175 172 166 161 153 155 146 193 328 294 314
224 233 251 236 173 204 247 253 273 271 272 275 223 247 74 303 171 190 273 166 184 182 182 181 180 181 180 179 180 182 178 178 181 180 173 172 167 156 163 158 192 298 284 207
280 237 233 245 232 271 194 222 239 257 255 257 251 273 276 329 188 131 268 173 190 190 185 187 186 184 187 184 182 183 178 182 182 176 176 172 163 163 160 182 193 304 276 60
243 242 260 269 276 278 280 229 239 249 264 271 276 205 353 24 23 21 193 192 193 192 190 191 190 186 186 186 184 186 187 182 181 176 177 173 181 182 201 215 273 284 6 286
221 260 290 298 292 268 241 262 273 214 261 255 275 287 317 359 67 329 291 228 202 199 200 197 194 188 188 185 184 183 182 182 177 177 177 190 195 199 208 231 286 318 317 297
226 240 250 257 265 296 246 244 264 254 226 240 256 248 260 327 335 334 294 245 221 208 207 202 196 191 191 188 185 182 181 178 180 179 185 193 194 203 212 231 268 286 297 255
199 253 270 282 294 263 264 316 309 297 252 256 253 268 285 316 335 302 285 256 237 218 208 202 194 190 188 186 182 176 178 179 181 182 188 188 190 201 209 241 268 279 271 254
246 274 267 265 256 269 273 257 230 254 273 293 325 272 337 352 305 297 248 257 248 220 200 195 192 190 182 181 178 175 178 178 185 186 188 188 194 202 215 240 262 261 261 257
269 235 268 266 272 276 287 31 6 340 261 12 1 10 357 332 289 52 350 283 228 200 188 187 189 181 182 181 179 175 175 179 181 180 178 188 192 200 228 267 269 269 258 254
223 240 253 240 248 259 42 32 336 251 17 7 3 357 350 336 354 337 343 257 171 173 176 180 182 173 183 177 174 167 167 167 165 167 176 187 202 234 271 271 266 265 267 234
252 253 241 249 266 260 17 281 303 16 341 358 349 344 344 330 2 7 49 148 159 159 154 174 171 159 163 169 167 160 153 157 158 168 179 209 248 274 278 273 281 284 277 271
242 275 305 311 14 102 3 342 335 332 326 327 333 331 316 304 359 11 111 138 143 148 151 164 165 150 144 151 164 156 161 173 178 179 206 246 259 260 251 277 281 279 286 274
192 186 264 288 284 339 342 322 311 314 311 319 317 321 303 283 194 125 121 123 128 138 143 147 149 154 149 136 114 192 182 178 183 193 211 205 235 244 260 263 278 279 266 264
37 155 258 268 258 296 268 1 321 309 312 317 333 324 315 146 128 135 121 125 131 131 146 155 162 170 191 165 183 191 183 187 179 183 199 203 226 263 254 270 249 254 264 253
229 255 244 24 36 335 335 327 313 276 233 17 135 109 99 112 115 112 112 129 131 133 125 135 142 138 151 151 165 163 166 164 171 193 217 223 228 242 262 263 273 286 293 291